EN

Hourly Weather Ludus

Today, 4 December, Friday

Time Temperature Precipitation Wind Pressure Humidity
00:00 +2°C° 0 mm 1 mps 732 mmHg 72%
01:00 +2°C° 0 mm 1 mps 732 mmHg 72%
02:00 +2°C° 0 mm 1 mps 731 mmHg 72%
03:00 +1°C° 0 mm 2 mps 731 mmHg 70%
04:00 +1°C° 0 mm 2 mps 731 mmHg 67%
05:00 +1°C° 0 mm 2 mps 731 mmHg 65%
06:00 +1°C° 0 mm 2 mps 731 mmHg 68%
07:00 0°C° 0 mm 3 mps 731 mmHg 71%
08:00 0°C° 0 mm 3 mps 731 mmHg 74%
09:00 +1°C° 0 mm 4 mps 731 mmHg 72%
10:00 +4°C° 0 mm 4 mps 731 mmHg 69%
11:00 +6°C° 0 mm 4 mps 731 mmHg 67%
12:00 +7°C° 0 mm 4 mps 731 mmHg 66%
13:00 +8°C° 0 mm 4 mps 731 mmHg 65%
14:00 +10°C° 0 mm 4 mps 731 mmHg 64%
15:00 +8°C° 0 mm 3 mps 731 mmHg 69%
16:00 +7°C° 0 mm 3 mps 731 mmHg 74%
17:00 +5°C° 0 mm 3 mps 731 mmHg 80%
18:00 +4°C° 0 mm 3 mps 731 mmHg 81%
19:00 +4°C° 0 mm 3 mps 732 mmHg 82%
20:00 +4°C° 0 mm 3 mps 732 mmHg 84%
21:00 +3°C° 0 mm 3 mps 732 mmHg 84%
22:00 +4°C° 0 mm 2 mps 732 mmHg 85%
23:00 +4°C° 0 mm 2 mps 732 mmHg 85%

Tomorrow, 5 December, Saturday

Time Temperature Precipitation Wind Pressure Humidity
00:00 +4°C° 0 mm 2 mps 733 mmHg 86%
01:00 +4°C° 0 mm 2 mps 733 mmHg 86%
02:00 +5°C° 0 mm 1 mps 733 mmHg 87%
03:00 +4°C° 0 mm 2 mps 733 mmHg 87%
04:00 +4°C° 0 mm 2 mps 733 mmHg 87%
05:00 +4°C° 0 mm 2 mps 732 mmHg 88%
06:00 +4°C° 0 mm 2 mps 733 mmHg 88%
07:00 +4°C° 0 mm 2 mps 733 mmHg 87%
08:00 +4°C° 0 mm 2 mps 733 mmHg 87%
09:00 +6°C° 0 mm 2 mps 734 mmHg 82%
10:00 +7°C° 0 mm 3 mps 734 mmHg 77%
11:00 +9°C° 0 mm 3 mps 734 mmHg 72%
12:00 +10°C° 0 mm 3 mps 734 mmHg 70%
13:00 +11°C° 0 mm 3 mps 734 mmHg 68%
14:00 +12°C° 0 mm 3 mps 734 mmHg 66%
15:00 +11°C° 0 mm 3 mps 734 mmHg 70%
16:00 +10°C° 0 mm 3 mps 734 mmHg 74%
17:00 +8°C° 0 mm 3 mps 735 mmHg 79%
18:00 +8°C° 0 mm 3 mps 735 mmHg 80%
19:00 +8°C° 0 mm 3 mps 735 mmHg 82%
20:00 +7°C° 0 mm 3 mps 735 mmHg 83%
21:00 +7°C° 0 mm 3 mps 735 mmHg 84%
22:00 +5°C° 0 mm 3 mps 735 mmHg 85%
23:00 +5°C° 0 mm 3 mps 736 mmHg 86%

Day after tomorrow, 6 December, Sunday

Time Temperature Precipitation Wind Pressure Humidity
00:00 +5°C° 0 mm 3 mps 736 mmHg 87%
01:00 +5°C° 0 mm 3 mps 736 mmHg 87%
02:00 +5°C° 0 mm 2 mps 736 mmHg 88%
03:00 +4°C° 0 mm 3 mps 736 mmHg 87%
04:00 +4°C° 0 mm 3 mps 736 mmHg 87%
05:00 +4°C° 0 mm 3 mps 735 mmHg 87%
06:00 +4°C° 0 mm 3 mps 735 mmHg 87%
07:00 +4°C° 0 mm 3 mps 735 mmHg 86%
08:00 +3°C° 0 mm 3 mps 735 mmHg 86%
09:00 +5°C° 0 mm 4 mps 735 mmHg 80%
10:00 +6°C° 0 mm 4 mps 735 mmHg 74%
11:00 +8°C° 0 mm 5 mps 736 mmHg 68%
12:00 +9°C° 0 mm 5 mps 735 mmHg 65%
13:00 +10°C° 0 mm 5 mps 735 mmHg 63%
14:00 +10°C° 0 mm 6 mps 735 mmHg 60%
15:00 +9°C° 0 mm 6 mps 735 mmHg 63%
16:00 +8°C° 0 mm 5 mps 734 mmHg 67%
17:00 +7°C° 0 mm 5 mps 734 mmHg 70%
18:00 +6°C° 0 mm 5 mps 734 mmHg 71%
19:00 +5°C° 0 mm 6 mps 734 mmHg 72%
20:00 +4°C° 0 mm 6 mps 734 mmHg 73%
21:00 +4°C° 0 mm 6 mps 734 mmHg 72%
22:00 +3°C° 0 mm 6 mps 734 mmHg 72%
23:00 +3°C° 0 mm 6 mps 734 mmHg 71%

7 December, Monday

Time Temperature Precipitation Wind Pressure Humidity
00:00 +3°C° 0 mm 6 mps 734 mmHg 70%
01:00 +2°C° 0 mm 6 mps 734 mmHg 69%
02:00 +2°C° 0 mm 6 mps 733 mmHg 68%
03:00 +1°C° 0 mm 6 mps 733 mmHg 67%
04:00 +1°C° 0 mm 6 mps 733 mmHg 66%
05:00 +1°C° 0 mm 6 mps 732 mmHg 65%
06:00 -1°C° 0 mm 6 mps 732 mmHg 65%
07:00 0°C° 0 mm 5 mps 732 mmHg 64%
08:00 0°C° 0 mm 5 mps 732 mmHg 64%
09:00 +1°C° 0 mm 6 mps 732 mmHg 60%
10:00 +2°C° 0 mm 6 mps 731 mmHg 56%
11:00 +3°C° 0 mm 7 mps 731 mmHg 53%
12:00 +3°C° 0 mm 7 mps 731 mmHg 52%
13:00 +4°C° 0 mm 7 mps 731 mmHg 51%
14:00 +4°C° 0 mm 6 mps 730 mmHg 50%
15:00 +3°C° 0.1 mm 6 mps 730 mmHg 54%
16:00 +2°C° 0.1 mm 6 mps 731 mmHg 59%
17:00 +2°C° 0.1 mm 5 mps 731 mmHg 64%
18:00 +1°C° 0.8 mm 5 mps 731 mmHg 72%
19:00 +1°C° 0.8 mm 4 mps 731 mmHg 80%
20:00 0°C° 0.8 mm 4 mps 731 mmHg 88%
21:00 +1°C° 0.3 mm 3 mps 731 mmHg 88%
22:00 +1°C° 0.3 mm 3 mps 731 mmHg 87%
23:00 +2°C° 0.3 mm 2 mps 731 mmHg 86%

8 December, Tuesday

Time Temperature Precipitation Wind Pressure Humidity
00:00 +2°C° 0 mm 2 mps 731 mmHg 87%
01:00 +2°C° 0 mm 2 mps 730 mmHg 88%
02:00 +2°C° 0 mm 2 mps 730 mmHg 89%
03:00 +2°C° 0 mm 2 mps 730 mmHg 90%
04:00 +2°C° 0 mm 2 mps 730 mmHg 91%
05:00 +2°C° 0 mm 2 mps 730 mmHg 92%
06:00 +3°C° 0 mm 1 mps 730 mmHg 92%
07:00 +3°C° 0 mm 1 mps 730 mmHg 93%
08:00 +3°C° 0 mm 1 mps 730 mmHg 93%
09:00 +3°C° 0 mm 1 mps 730 mmHg 89%
10:00 +4°C° 0 mm 1 mps 730 mmHg 86%
11:00 +4°C° 0 mm 2 mps 730 mmHg 82%
12:00 +5°C° 0 mm 2 mps 730 mmHg 78%
13:00 +6°C° 0 mm 2 mps 730 mmHg 74%
14:00 +7°C° 0 mm 2 mps 730 mmHg 70%
15:00 +6°C° 0 mm 2 mps 730 mmHg 74%
16:00 +6°C° 0 mm 2 mps 730 mmHg 77%
17:00 +6°C° 0 mm 1 mps 730 mmHg 81%
18:00 +5°C° 0 mm 2 mps 730 mmHg 81%
19:00 +5°C° 0 mm 2 mps 730 mmHg 82%
20:00 +5°C° 0 mm 2 mps 730 mmHg 82%
21:00 +5°C° 0 mm 2 mps 731 mmHg 83%
22:00 +5°C° 0 mm 2 mps 731 mmHg 83%
23:00 +4°C° 0 mm 2 mps 731 mmHg 84%

9 December, Wednesday

Time Temperature Precipitation Wind Pressure Humidity
00:00 +4°C° 0 mm 2 mps 731 mmHg 84%
01:00 +5°C° 0 mm 1 mps 731 mmHg 84%
02:00 +5°C° 0 mm 1 mps 731 mmHg 84%
03:00 +5°C° 0 mm 1 mps 731 mmHg 85%
04:00 +5°C° 0 mm 1 mps 731 mmHg 86%
05:00 +4°C° 0 mm 1 mps 731 mmHg 87%
06:00 +4°C° 0 mm 1 mps 730 mmHg 88%
07:00 +4°C° 0 mm 1 mps 730 mmHg 88%
08:00 +4°C° 0 mm 1 mps 730 mmHg 89%
09:00 +5°C° 0 mm 1 mps 730 mmHg 86%
10:00 +6°C° 0 mm 1 mps 730 mmHg 82%
11:00 +6°C° 0 mm 2 mps 730 mmHg 79%
12:00 +7°C° 0 mm 2 mps 730 mmHg 78%
13:00 +7°C° 0 mm 2 mps 729 mmHg 77%
14:00 +8°C° 0 mm 2 mps 729 mmHg 76%
15:00 +8°C° 0.1 mm 2 mps 729 mmHg 79%
16:00 +8°C° 0.1 mm 1 mps 729 mmHg 82%
17:00 +8°C° 0.1 mm 1 mps 728 mmHg 85%
18:00 +6°C° 0 mm 2 mps 728 mmHg 86%
19:00 +5°C° 0 mm 3 mps 728 mmHg 88%
20:00 +5°C° 0 mm 3 mps 728 mmHg 89%
21:00 +5°C° 0 mm 3 mps 728 mmHg 89%
22:00 +5°C° 0 mm 3 mps 728 mmHg 89%
23:00 +5°C° 0 mm 3 mps 728 mmHg 89%
Show more